钟子号卫星1组 01星 (NINGXIA-1 1)

导读 | 星芒AI

NINGXIA-1 1 是由中国宁夏回族自治区主导研制的一颗遥感卫星,主要用于国土资源调查、环境监测、农业评估等领域。该卫星具备高分辨率成像能力,能够提供清晰的地表图像,支持地方经济发展与生态保护。它于2022年成功发射,是宁夏推进航天科技应用、提升区域信息化水平的重要举措,标志着宁夏在航天遥感技术应用方面迈出了重要一步。

基本信息
目录编号:
44779
目录名称:
NINGXIA-1 1
国际标识:
2019-076A
轨道中心:
EARTH
卫星名称:
钟子号卫星1组 01星
卫星全名:
钟子号卫星1组 01星 (NINGXIA-1 1)
卫星状态:
在轨 (已飞行2225 天)
发射日期:
2019-11-13 UTC
国别 :
中国 (CN)
星等 :
--
轨道信息
数据来源 国际轨道数据 AOE轨道数据
星历时间 2025-12-15T16:01:29+0800
17小时前
查看轨道信息
2025-12-11T20:00:00+0800
4天前
查看轨道信息
半长轴 7265.005km 7265.011km
偏心率 0.0011623 0.0011647
轨道倾角 45.006° 45.004°
近地点辐角 1.410° 343.663°
升交点赤经 281.438° 298.573°
平近点角 358.676° 85.428°
近地点 878.425km 878.414km
远地点 895.315km 895.338km
周期 102.710分钟 102.710分钟
每日圈数 14.020029 14.020012
详细信息
平衡模式:
三轴稳定
覆盖范围:
全球
运营商:
夏威夷科学技术博物馆
运营商所在国:
美国
制造商(研发单位):
中国东方红卫星股份有限公司
制造商所在国:
中国
使用方式:
暂无
卫星简介
钟子号卫星星座(Zhongzi)是由宁夏金硅信息技术有限公司自主投资建设的商业航天项目,卫星由五院所属航天东方红卫星有限公司抓总研制,主要应用于遥感探测等领域。该卫星仍在工作。
2D轨道图
3D轨道图
轨道高度分析图
轨道倾角分析图
轨道综合分析图
查看轨道综合分析图